Weather past 2 weeks in Philipsburg, Sint Maarten

Now
82 °F

Thunderstorms. Passing clouds.


Feels Like: 89 °F
Forecast: 82 / 87 °F
Wind: 13 mph from Southeast

Location: Juliana Airport - Saint Maarten

Current Time: Aug 22, 2014 at 8:24:32 PM

Latest Report: Aug 22, 2014 at 7:00 PM


Visibility: N/A

Pressure: 29.92 "Hg

Humidity: 79%

Dew point: 75 °F

Location of PhilipsburgLocation

Historic Weather in Philipsburg — Graph

°F

Philipsburg temperature yesterday

Maximum temperature yesterday: 88 °F (at 10:00 AM)
Minimum temperature yesterday: 81 °F (at 6:00 PM)
Average temperature yesterday: 84 °F

Past Weeks' High & Low Weather Summary

 TemperatureHumidityPressure
High90 °F (Aug 18, 2:00 PM)89% (Aug 8, 7:00 PM)30.09 "Hg (Aug 8, 7:00 PM)
Low77 °F (Aug 8, 8:00 PM)52% (Aug 18, 2:00 PM)29.83 "Hg (Aug 22, 2:00 AM)
Average84 °F74%30.01 "Hg
* Reported Aug 7 7:00 PM — Aug 22 7:00 PM, Philipsburg, Weather by CustomWeather, © 2014

Note: Actual official high and low records may vary slightly from our data, if they occured in-between our weather recording intervals... More about our weather records

Advertising

Philipsburg weather history for previous 24 hours

 ConditionsComfort  
Time TempWeatherWind HumidityBarometerVisibility
7:00 PM
Aug 22
82 °FThunderstorms. Passing clouds.13 mph79%29.92 "HgN/A
6:00 PM82 °FScattered clouds.13 mph84%29.89 "HgN/A
5:00 PM82 °FScattered clouds.13 mph84%29.89 "HgN/A
4:00 PM84 °FScattered clouds.14 mph79%29.89 "HgN/A
3:00 PM84 °FPassing clouds.17 mph74%29.89 "HgN/A
2:00 PM84 °FPassing clouds.20 mph74%29.89 "HgN/A
12:00 PM84 °FPartly sunny.17 mph74%29.92 "HgN/A
11:00 AM84 °FBroken clouds.21 mph79%29.92 "HgN/A
10:00 AM84 °FBroken clouds.22 mph79%29.92 "HgN/A
9:00 AM84 °FPartly sunny.23 mph79%29.92 "HgN/A
8:00 AM82 °FBroken clouds.18 mph79%29.89 "HgN/A
7:00 AM82 °FScattered clouds.22 mph79%29.86 "HgN/A
6:00 AM81 °FScattered clouds.17 mph89%29.86 "HgN/A
5:00 AM81 °FSprinkles. Passing clouds.22 mph84%29.83 "Hg5 mi
4:00 AM81 °FPassing clouds.13 mph84%29.83 "HgN/A
3:00 AM81 °FSprinkles. Passing clouds.8 mph84%29.83 "Hg5 mi
2:00 AM82 °FPassing clouds.8 mph84%29.83 "HgN/A
1:00 AM81 °FPassing clouds.10 mph89%29.86 "HgN/A
12:00 AM81 °FScattered showers. Passing clouds.9 mph84%29.89 "HgN/A
11:00 PM
Aug 21
82 °FPassing clouds.12 mph84%29.92 "HgN/A
10:00 PM82 °FPassing clouds.16 mph79%29.92 "HgN/A
9:00 PM82 °FSprinkles. Passing clouds.17 mph79%29.92 "HgN/A
8:00 PM82 °FPassing clouds.13 mph79%29.89 "HgN/A
Weather by CustomWeather, © 2014

See weather overviewHow to use our weather pages